Location: Cabeza de los Veneras
(40.2000°N, 5.2000°W)
Time: 13:42:03
(UTC+00:00)

ATLAS 3B R/B - Pass Details

Date: 18 April 2024
Orbit: 943 x 1251 km, 63.8° (Epoch: 26 May)

Event Time Altitude Azimuth Distance (km) Brightness Sun altitude
Rises 20:12:27 0° 217° (SW) 3,811 5.7 -13.1°
Reaches altitude 10° 20:15:00 10° 219° (SW) 2,903 5.1 -13.6°
Maximum altitude 20:21:56 75° 305° (NW) 1,176 3.1 -14.7°
Drops below altitude 10° 20:29:28 10° 31° (NNE) 3,138 5.1 -16.0°
Sets 20:32:19 0° 33° (NNE) 4,138 5.8 -16.5°
